Location: Dilsbergerhof
(49.3804°N, 8.8395°E)
Time: 09:47:40
(UTC+00:00)

Daily predictions for brighter satellites

Satellite Brightness Start Highest point End
(mag) Time Altitude Azimuth Time Altitude Azimuth Time Altitude Azimuth
Cosmos 1455 Rocket 3.1 19:31:50 10° S 19:36:12 70° E 19:40:35 10° NNE
Cosmos 1892 Rocket 3.5 19:31:59 10° N 19:36:19 85° ENE 19:40:37 10° S
USA 306 2.3 19:33:02 10° WSW 19:36:30 65° NNW 19:38:57 10° ENE
CZ-4B R/B 4.5 19:35:56 10° ESE 19:38:07 16° ENE 19:40:20 10° NNE
Okean O Rocket 2.1 19:34:56 10° SE 19:39:00 43° ENE 19:43:05 10° N
Cosmos 2100 Rocket 4.4 19:34:25 10° SSW 19:40:40 73° W 19:47:01 10° N
Meteor 1-27 4.2 19:36:29 10° S 19:42:05 73° E 19:47:39 10° NNE
Cosmos 2228 3.1 19:38:27 10° S 19:42:26 51° E 19:46:25 10° NNE
NOSS 3-4 (A) 4.5 19:36:47 10° NW 19:42:56 45° NE 19:50:08 10° ESE
SPOT 5 4.3 19:39:05 10° SSW 19:43:00 33° W 19:47:01 10° NNW
SL-24 R/B 4.3 19:38:56 10° NNE 19:43:14 82° WNW 19:47:57 10° SSW
SL-16 R/B 2.9 19:37:57 10° NNW 19:43:23 44° NE 19:48:47 10° SE
NOSS 3-4 (C) 4.5 19:37:24 10° NW 19:43:35 45° NE 19:50:48 10° ESE
USA 186 2.5 19:41:13 10° SE 19:43:37 28° ENE 19:46:03 10° N
Okean 1 Rocket 4.3 19:44:25 10° SSW 19:48:40 47° WNW 19:52:58 10° N
Cosmos 2233 Rocket 4.0 19:45:03 10° S 19:51:08 63° E 19:57:14 10° NNE
Cosmos 2084 Rocket 3.9 19:47:04 10° NW 19:51:10 54° SW 19:55:18 10° SSE
ATLAS 2AS CENTAUR R/B 4.4 19:45:55 10° W 19:52:15 37° NNW 19:58:31 10° NE
SKYMED 3 4.3 19:53:21 10° NNE 19:57:20 80° ESE 20:01:18 10° S
CZ-2C R/B 4.4 19:56:30 10° E 19:57:21 11° ENE 19:58:13 10° NE
COSMOS 2406 3.6 19:52:56 10° S 19:58:20 43° ESE 20:03:43 10° NE
Cosmos 1980 Rocket 3.3 19:53:36 10° NW 19:58:54 41° WSW 20:04:10 10° S
Okean-O 2.7 19:55:26 10° SSE 19:59:45 68° ENE 20:04:07 10° N
Cosmos 1782 2.6 19:56:20 10° SSW 19:59:50 79° W 20:03:23 10° N
CZ-4 R/B 3.0 19:57:06 10° SSW 20:00:16 28° W 20:03:28 10° NW
Ariane Rocket 3.9 19:58:02 10° SE 20:02:28 34° ENE 20:07:00 10° N
Cosmos 1933 4.3 20:02:11 11° SSE 20:05:10 27° E 20:08:26 10° NNE
SPOT 3 Rocket 4.1 20:01:10 11° SE 20:05:52 45° ENE 20:10:45 10° N
Cosmos 1758 Rocket 3.8 20:02:16 10° N 20:06:36 54° ENE 20:10:37 12° SSE
Spot 2 Rocket 3.5 20:02:42 10° SSE 20:07:44 88° ENE 20:12:47 10° NNW
Cosmos 1725 Rocket 4.4 20:03:38 10° SSW 20:09:53 70° WNW 20:16:07 10° N
Cosmos 2333 Rocket 2.5 20:05:40 10° NNW 20:11:18 60° NE 20:16:16 14° SE
ERS-1 Rocket 4.1 20:09:11 10° SSW 20:13:54 42° W 20:18:41 10° NNW
Tsikada Rocket 4.1 20:12:14 10° NNW 20:18:24 76° W 20:24:32 10° S
USA 245 4.3 20:19:40 13° SSE 20:25:02 71° ENE 20:30:33 10° N
Cosmos 2360 Rocket 2.8 20:19:42 10° NNW 20:25:11 47° NE 20:29:39 15° ESE
Cosmos 1461 2.7 20:22:40 10° SSW 20:26:16 51° ESE 20:29:51 10° NE
CZ-4B R/B 4.3 20:21:37 10° S 20:26:59 44° W 20:32:20 10° NNW
CZ-4B R/B 3.6 20:25:36 16° SE 20:29:18 57° ENE 20:34:04 10° N
CZ-4C R/B 3.8 20:26:08 10° W 20:30:21 35° NNW 20:35:42 10° NE
Cosmos 1602 Rocket 3.8 20:26:34 10° N 20:30:49 54° ENE 20:33:49 18° SSE
Cosmos 1992 Rocket 4.1 20:25:41 10° SSW 20:30:54 84° WNW 20:36:09 10° NNE
YAOGAN 11 4.2 20:29:34 10° NNE 20:34:02 85° WNW 20:38:30 10° SSW
ISS -3.1 20:33:59 10° W 20:37:17 56° N 20:40:36 10° ENE
Cosmos 1777 Rocket 4.3 20:32:23 10° NNW 20:37:33 55° ENE 20:41:09 19° SE
Cosmos 2219 Rocket 3.1 20:33:14 10° NNW 20:38:33 39° NE 20:42:48 15° ESE
Meteor 1-25 Rocket 4.2 20:33:48 10° N 20:39:29 73° ENE 20:43:46 18° SSE
Cosmos 220 Rocket 4.0 20:36:01 13° S 20:39:29 49° ESE 20:43:27 10° NNE
Cosmos 1437 Rocket 2.4 20:36:40 13° S 20:39:42 73° E 20:43:18 10° NNE
USA 290 3.6 20:39:46 20° ESE 20:39:50 20° ESE 20:42:13 10° NE
SL-08 R/B 4.3 20:39:36 10° N 20:44:16 49° WNW 20:48:48 10° SW
Cosmos 1503 Rocket 4.4 20:40:59 10° NNW 20:46:03 50° ENE 20:49:23 20° SE
DEBRIS 3.6 20:43:47 10° W 20:47:01 90° SW 20:57:28 10° E
Cosmos 1626 Rocket 4.1 20:42:53 10° NNW 20:47:10 55° W 20:51:00 13° S
Cosmos 2098 Rocket 3.4 20:44:23 19° SSE 20:47:37 50° E 20:51:40 10° NNE
Cosmos 1076 Rocket 4.5 20:45:34 10° N 20:49:26 32° ENE 20:51:27 21° ESE
NOSS 3-3 (A) 4.2 20:44:19 10° SW 20:49:34 65° NW 20:55:56 10° NE
Terra 4.0 20:48:12 10° SW 20:51:45 21° W 20:55:20 10° NW
Cosmos 2151 3.3 20:51:06 10° NNW 20:55:10 60° W 20:58:09 17° S
Cosmos 2322 Rocket 2.2 20:51:24 10° NNW 20:57:06 80° ENE 21:00:46 23° SSE
Cosmos 1486 Rocket 4.0 20:51:56 10° NNW 20:57:13 86° ENE 21:00:35 23° SSE
Cosmos 1513 Rocket 4.4 20:51:10 10° S 20:57:20 83° E 21:03:29 10° N
IRS-1C Rocket 4.1 20:53:40 19° SSE 20:57:28 88° WSW 21:02:47 10° NNW
Cosmos 1464 Rocket 4.1 20:53:50 17° SSE 20:58:29 61° E 21:04:35 10° NNE
Cosmos 2082 Rocket 3.7 20:56:10 10° WSW 21:01:31 40° NW 21:06:53 10° NNE
USA 306 3.7 21:01:24 10° WNW 21:03:35 22° NNW 21:04:50 13° NE
Cosmos 1606 Rocket 3.6 21:03:17 26° SSE 21:05:31 56° E 21:09:46 10° NNE
Meteor 2-10 4.2 20:59:52 10° N 21:05:38 77° ENE 21:09:14 24° SSE
CZ-4B R/B 3.4 21:09:42 21° SSW 21:11:33 40° W 21:14:51 10° NNW
Cosmos 1766 4.2 21:09:48 10° NNE 21:12:30 24° ENE 21:13:02 23° E
USA 186 4.2 21:11:38 10° WSW 21:13:04 13° W 21:14:30 10° WNW
Cosmos 1726 Rocket 3.7 21:12:34 32° SSE 21:14:01 48° E 21:17:55 10° NNE
Cosmos 2237 Rocket 4.4 21:10:51 10° N 21:14:32 17° NE 21:18:13 10° ENE
Cosmos 1428 Rocket 4.5 21:09:05 10° N 21:15:21 77° E 21:19:09 25° SSE
Okean O Rocket 3.6 21:11:59 10° SW 21:15:21 22° W 21:18:45 10° NW
Cosmos 540 Rocket 3.9 21:13:17 27° SSE 21:15:34 43° ESE 21:20:26 10° NE
Cosmos 1072 Rocket 4.5 21:11:32 16° S 21:16:42 87° E 21:23:06 10° N
Cosmos 1092 Rocket 4.5 21:11:11 10° N 21:17:06 46° ENE 21:20:29 24° SE
Aureole 1 Rocket 4.5 21:13:07 10° NNW 21:18:35 48° ENE 21:22:39 22° SE
Cosmos 1805 3.4 21:17:59 10° NNW 21:21:10 51° W 21:22:21 32° SSW
Cosmos 2278 4.2 21:17:29 10° NW 21:23:00 51° WSW 21:26:23 23° S
Meteor 1-5 Rocket 4.4 21:19:55 10° NNW 21:25:39 72° W 21:29:21 24° S
COSMOS 2428 3.9 21:21:11 10° NNW 21:26:20 33° NE 21:30:13 16° ESE
SL-16 R/B 3.2 21:22:13 10° NW 21:27:24 37° WSW 21:30:55 19° SSW
CZ-2C R/B 2.8 21:27:14 34° SW 21:27:46 39° W 21:30:24 10° NNW
Okean 1-7 Rocket 3.8 21:23:53 10° NNW 21:28:19 66° W 21:30:35 28° S
Geosat 4.3 21:28:30 10° NE 21:33:20 46° ESE 21:35:08 32° SSE
NOSS 3-4 (A) 4.0 21:27:29 10° NW 21:34:09 62° SW 21:38:39 26° SSE
NOSS 3-4 (C) 4.0 21:28:08 10° NW 21:34:48 62° SW 21:39:17 27° SSE
Cosmos-2242 3.3 21:34:03 38° SE 21:35:00 46° E 21:38:57 10° NNE
Cosmos 2034 Rocket 4.0 21:32:54 25° S 21:36:53 77° E 21:43:14 10° NNE
Ariane Rocket 4.0 21:38:06 19° SSW 21:41:17 38° W 21:46:01 10° NNW
USA 234 4.3 21:42:17 10° ENE 21:47:10 23° ESE 21:47:10 23° ESE
TSX-5 4.1 21:46:35 10° NNW 21:49:34 40° NE 21:50:06 36° E
Nadezhda 4 Rocket 4.5 21:46:29 10° NNW 21:52:25 53° W 21:56:13 22° SSW
Cosmos 2333 Rocket 3.7 21:50:33 10° NW 21:55:13 27° WSW 21:58:17 17° SSW
Helios 1B rocket 2.2 21:55:11 53° ESE 21:55:37 58° ENE 21:59:04 10° N
Cosmos 2279 Rocket 4.5 21:53:17 30° SE 21:55:47 45° E 22:01:41 10° NNE
Cosmos 1763 Rocket 3.5 21:53:12 22° SSW 21:56:39 82° WNW 22:01:58 10° NNE
Okean 1 4.0 21:56:18 28° SW 21:57:41 43° WNW 22:01:09 10° N
Cosmos 1470 3.4 21:55:07 10° N 21:58:08 32° ENE 21:58:12 32° ENE
Cosmos 1536 2.5 21:55:01 10° N 21:58:42 72° ENE 21:59:12 61° SE
Cosmos 2221 3.7 21:59:07 26° E 21:59:27 26° E 22:02:57 10° NNE
Cosmos 1707 2.2 21:59:51 63° N 21:59:51 63° N 22:02:18 10° N
Cosmos 1898 Rocket 4.0 21:54:47 10° NNW 21:59:50 50° ENE 22:02:03 30° ESE
Cosmos 1634 Rocket 4.0 21:57:45 33° SSE 22:00:34 67° E 22:06:43 10° NNE
CSL-04 DEB 4.2 22:01:35 53° ESE 22:02:03 59° ENE 22:05:38 10° N
Cosmos 1833 4.2 21:57:58 19° SSW 22:02:11 82° WNW 22:07:52 10° NNE
Cosmos 2297 Rocket 3.8 22:01:44 18° ESE 22:02:12 18° E 22:05:52 10° ENE
Cosmos 1953 Rocket 3.9 21:59:19 10° NNW 22:03:35 57° W 22:04:56 39° SSW
CZ-2C R/B 4.3 21:59:24 10° NNE 22:03:36 38° E 22:04:14 36° ESE
Cosmos 44 3.4 21:59:33 10° NW 22:04:59 84° SW 22:06:56 40° SSE
Cosmos 990 Rocket 4.3 21:59:57 10° NNW 22:05:00 55° WSW 22:06:54 35° SSW
Cosmos 2360 Rocket 3.3 22:03:58 10° NW 22:09:01 34° WSW 22:11:23 24° SSW
Meteor 2-6 Rocket 4.5 22:08:15 37° SSE 22:10:34 61° E 22:16:26 10° NNE
Cosmos 2322 3.8 22:05:36 10° NNW 22:11:18 69° ENE 22:13:46 34° SE
USA 290 4.2 22:12:10 17° WSW 22:13:48 26° WNW 22:16:31 10° N
ISS -3.8 22:10:55 10° WNW 22:14:17 81° NNE 22:14:19 80° NNE
Cosmos 2026 Rocket 4.3 22:08:48 10° NNW 22:15:06 63° W 22:18:17 30° SSW
BREEZE-M DEB (TANK) 4.1 22:13:08 10° W 22:13:11 11° W 22:13:11 11° W
Cosmos 2058 Rocket 3.0 22:14:25 46° SSW 22:15:39 79° WNW 22:20:00 10° N
GP-B 4.5 22:14:29 10° NNE 22:18:07 25° E 22:18:52 24° E
Helios 1A 3.2 22:17:33 10° N 22:21:25 60° WNW 22:22:30 42° SW
Cosmos 2219 Rocket 2.9 22:17:13 10° NW 22:22:32 42° WSW 22:24:29 31° SSW
Cosmos 2266 Rocket 4.5 22:18:27 10° N 22:24:16 47° ENE 22:26:50 30° SE
KORONAS-FOTON 3.5 22:25:06 71° W 22:25:09 71° W 22:28:33 10° N
Cosmos 1975 2.8 22:21:36 10° N 22:25:14 54° ENE 22:25:24 54° E
Cosmos 841 Rocket 3.7 22:28:15 44° SE 22:29:20 52° ESE 22:34:25 10° NNE
RESURS DK-1 2.1 22:28:09 10° NNW 22:32:09 83° ENE 22:32:35 69° SE
ARIANE 5 R/B 2.6 22:32:16 55° SSE 22:33:13 81° ENE 22:37:42 10° NNW
ALOS 2 2.7 22:33:58 52° SE 22:34:53 69° ENE 22:39:16 10° N
Cosmos 2322 Rocket 4.0 22:36:37 10° WNW 22:40:26 19° W 22:42:34 15° SW
Cosmos 1271 Rocket 2.6 22:46:13 65° WNW 22:46:13 65° WNW 22:49:29 10° N
Cosmos 372 Rocket 4.2 22:41:45 10° NNW 22:46:43 53° WSW 22:47:53 44° SSW
SL-16 R/B 4.3 22:42:46 10° N 22:47:09 22° NE 22:51:32 10° E
Cosmos 1842 3.5 22:47:39 46° WNW 22:47:39 46° WNW 22:50:30 10° N
Lacrosse 4 Rocket 3.2 22:51:57 18° E 22:51:57 18° E 22:53:56 10° ENE
Spot 4 3.9 22:51:57 52° SSW 22:53:00 69° WSW 22:57:48 10° NNW
Meteor 2-9 Rocket 4.2 22:48:55 10° NNW 22:54:17 72° W 22:55:56 45° SSW
PSLV R/B 3.5 22:51:09 10° NNE 22:55:27 70° ESE 22:55:59 61° SSE
Cosmos 2237 Rocket 2.5 22:54:06 10° NNW 22:59:47 64° ENE 23:02:17 33° SE
CZ-2C R/B 3.1 22:58:57 32° ESE 23:01:00 50° ENE 23:06:01 10° N
BREEZE-M DEB (TANK) 4.1 22:46:26 10° WSW 23:01:42 89° SSE 23:05:28 10° ENE
Cosmos 1980 3.8 22:58:16 10° NNW 23:03:56 72° ENE 23:06:12 37° SE
ARGOS Delta rocket 4.0 22:59:42 10° N 23:04:53 83° WNW 23:06:31 46° SSW
Cosmos 858 Rocket 4.4 23:00:05 10° NNW 23:05:18 87° ENE 23:06:42 50° SSE
Cosmos 2142 Rocket 4.5 23:05:17 39° SSW 23:07:48 79° W 23:14:04 10° N
Cosmos 1937 Rocket 3.5 23:03:17 10° NNW 23:08:23 64° WSW 23:09:27 51° SSW
Cosmos 2180 Rocket 4.5 23:06:36 39° SSW 23:09:06 80° W 23:15:29 10° N
COSMOS 2428 3.0 23:05:18 10° NW 23:10:50 52° WSW 23:12:11 43° SSW
Cosmos 2227 Rocket 3.4 23:11:04 25° ESE 23:12:03 26° ESE 23:16:41 10° NE
Meteor 2-4 Rocket 4.2 23:11:49 38° SE 23:13:15 46° E 23:18:30 10° NNE
NOSS 0 Rocket 3.9 23:07:23 10° NW 23:13:30 66° WSW 23:15:26 43° S
Meteor 1-11 Rocket 3.7 23:08:27 10° NNW 23:14:07 75° W 23:15:45 47° S
MetOp-A 3.7 23:18:10 55° S 23:19:16 87° WSW 23:23:59 10° NNW
Meteor 1-10 Rocket 4.3 23:17:23 42° SSW 23:19:30 81° WNW 23:25:29 10° N
Cosmos 2263 Rocket 3.8 23:20:54 19° ESE 23:22:02 20° E 23:25:58 10° NE
Cosmos 1812 Rocket 3.9 23:25:18 47° WSW 23:26:08 55° WNW 23:30:30 10° N
Cosmos 1238 Rocket 2.9 23:25:54 61° ESE 23:26:09 62° E 23:30:26 10° NNE
USA 234 3.2 23:24:32 10° ENE 23:31:06 71° SE 23:34:29 31° SW
SeaSat 1 3.1 23:28:37 25° ESE 23:31:13 52° NE 23:35:59 10° NNW
CZ-2C R/B 3.3 23:28:00 10° NNE 23:33:48 88° E 23:35:48 44° SSW
Meteor 1-27 Rocket 3.7 23:32:34 45° S 23:34:29 89° ESE 23:40:16 10° NNE
ACS3 Solar Sail 2.7 23:29:33 10° NNE 23:35:03 36° E 23:37:20 27° SE
Cosmos 2221 3.7 23:35:23 28° W 23:36:21 32° WNW 23:40:08 10° N
ATLAS 2AS CENTAUR R/B 4.3 23:31:52 10° NW 23:37:59 34° NNE 23:44:06 10° E
Meteor 2-20 Rocket 4.2 23:37:28 45° S 23:39:19 84° E 23:45:04 10° NNE
BlueWalker 3 3.5 23:41:18 23° E 23:41:18 23° E 23:42:56 10° ENE
Cosmos 2297 Rocket 2.1 23:43:29 42° SW 23:45:30 83° WNW 23:51:12 10° NNE
Okean 3 Rocket 4.3 23:43:35 10° N 23:47:58 48° ENE 23:49:21 36° ESE
Landsat 5 3.3 23:47:15 10° NNE 23:51:20 69° ESE 23:51:40 65° SE
Cosmos 1842 Rocket 3.6 23:53:33 57° SSE 23:54:15 69° E 23:58:40 10° NNE
GP-B 3.9 23:51:12 10° NNW 23:55:14 37° W 23:56:01 34° WSW
